Location: Unspecified
(33.6682°S, 0.0000°E)
Time: 02:07:50
(UTC+00:00)

Vanguard 2 Rocket - Pass Details

Date: 18 June 2019
Orbit: 554 x 3326 km, 32.9° (Epoch: 22 July)

Event Time Altitude Azimuth Distance (km) Brightness Sun altitude
Rises 15:23:55 0° 262° (W) 3,354 10.4 15.3°
Reaches altitude 10° 15:26:55 10° 272° (W) 2,156 9.8 14.8°
Maximum altitude 15:31:02 31° 334° (NNW) 1,036 8.6 14.2°
Drops below altitude 10° 15:34:34 10° 38° (NE) 1,829 8.6 13.6°
Sets 15:36:54 0° 49° (NE) 2,754 9.3 13.3°
